TimeCEST,TemperatureF,Dew PointF,Humidity,Sea Level PressureIn,VisibilityMPH,Wind Direction,Wind SpeedMPH,Gust SpeedMPH,PrecipitationIn,Events,Conditions,WindDirDegrees,DateUTC
12:00 AM,66.2,48.2,52,29.92,-9999.0,WNW,15.0,-,N/A,,Clear,290,2012-10-06 22:00:00
1:00 AM,62.6,48.2,59,29.92,-9999.0,WNW,6.9,-,N/A,,Clear,300,2012-10-06 23:00:00
3:00 AM,59.0,51.8,77,29.92,-9999.0,NW,5.8,-,N/A,,Clear,320,2012-10-07 01:00:00
4:00 AM,59.0,51.8,77,29.92,-9999.0,NW,3.5,-,N/A,,Clear,320,2012-10-07 02:00:00
5:00 AM,57.2,53.6,88,29.92,6.2,ENE,5.8,-,N/A,Rain,Light Rain,70,2012-10-07 03:00:00
6:00 AM,53.6,51.8,94,29.92,6.2,ENE,6.9,-,N/A,Rain,Light Rain,70,2012-10-07 04:00:00
7:00 AM,53.6,51.8,94,29.89,4.3,ENE,5.8,-,N/A,Rain,Light Rain,70,2012-10-07 05:00:00
8:00 AM,53.6,51.8,94,29.89,4.3,East,5.8,-,N/A,Rain,Light Rain,90,2012-10-07 06:00:00
9:00 AM,53.6,51.8,94,29.89,3.7,East,4.6,-,N/A,Rain,Light Rain,80,2012-10-07 07:00:00
11:00 AM,57.2,55.4,94,29.86,6.2,SSW,5.8,-,N/A,Rain,Light Rain,200,2012-10-07 09:00:00
12:00 PM,57.2,55.4,94,29.83,6.2,South,5.8,-,N/A,Rain,Light Rain,180,2012-10-07 10:00:00
1:00 PM,57.2,55.4,94,29.80,4.3,South,8.1,-,N/A,Rain,Light Rain,190,2012-10-07 11:00:00
2:00 PM,57.2,55.4,94,29.80,3.7,South,8.1,-,N/A,Rain,Light Rain,170,2012-10-07 12:00:00
3:00 PM,48.2,46.4,93,29.86,4.3,NE,13.8,-,N/A,Rain,Light Rain,40,2012-10-07 13:00:00
4:00 PM,48.2,46.4,93,29.92,3.7,NNE,10.4,-,N/A,Rain,Rain,30,2012-10-07 14:00:00
5:00 PM,48.2,44.6,87,29.95,6.2,North,9.2,-,N/A,,Mostly Cloudy,350,2012-10-07 15:00:00
6:00 PM,48.2,44.6,87,29.98,6.2,North,5.8,-,N/A,,Mostly Cloudy,350,2012-10-07 16:00:00
7:00 PM,46.4,42.8,87,30.01,6.2,Variable,2.3,-,N/A,,Partly Cloudy,0,2012-10-07 17:00:00
8:00 PM,42.8,41.0,93,30.04,6.2,NNW,6.9,-,N/A,,Partly Cloudy,330,2012-10-07 18:00:00
9:00 PM,42.8,41.0,93,30.04,-9999.0,NW,5.8,-,N/A,,Clear,320,2012-10-07 19:00:00
10:00 PM,42.8,41.0,93,30.06,6.2,WNW,4.6,-,N/A,,Partly Cloudy,290,2012-10-07 20:00:00
11:00 PM,42.8,41.0,93,30.06,-9999.0,West,3.5,-,N/A,,Clear,270,2012-10-07 21:00:00